Regional Weather Roundup
Issued by NWS

Home | Current Version | Previous Version | Text Only | Print | Product List | Glossary Off
Versions: 1 2 3 4 5 6 7 8 9 10 11 12 13 14 15 16 17 18 19 20 21 22 23 24 25 26 27 28 29 30 31 32 33 34 35 36 37 38 39 40 41 42 43 44 45 46 47 48 49 50

000
ASUS43 KLSX 021307
RWRMO

WEATHER SUMMARY FOR MISSOURI
NATIONAL WEATHER SERVICE SPRINGFIELD MO
800 AM CDT THU JUL 02 2015

NOTE: "FAIR" INDICATES FEW OR NO CLOUDS BELOW 12,000 FEET WITH NO
       SIGNIFICANT WEATHER AND/OR OBSTRUCTIONS TO VISIBILITY.
       CURRENT SKY AND/OR WEATHER CONDITIONS ARE NOT AVAILABLE FOR
       CHILLICOTHE AND FARMINGTON.

MOZ001>031-035>038-043-044-053-054-021400-
...NORTHERN AND WESTERN MISSOURI...

CITY           SKY/WX    TMP DP  RH WIND       PRES   REMARKS
KANSAS CTY INT CLOUDY    71  68  90 NE8       29.90R FOG
KANSAS C DTWN  CLOUDY    73  69  87 NE9       29.88R
LEE`S SUMMIT   CLOUDY    72  69  90 NE8       29.89R
ST JOSEPH      CLOUDY    70  67  90 NE8       29.92R
CHILLICOTHE      N/A     68  65  90 NE12      29.93R
KIRKSVILLE     LGT RAIN  65  62  90 NE9       29.94S FOG

$$
MOZ066>068-077>081-088>096-101>105-021400-
...SOUTHWEST MISSOURI...

CITY           SKY/WX    TMP DP  RH WIND       PRES   REMARKS
SPRINGFIELD    MOSUNNY   71  67  87 S15       29.85S
JOPLIN         PTSUNNY   79  71  76 S9        29.82F

$$
MOZ032>034-039>042-045>050-055>058-069>072-021400-
...CENTRAL MISSOURI...

CITY           SKY/WX    TMP DP  RH WIND       PRES   REMARKS
COLUMBIA       CLOUDY    71  69  93 NE13      29.87R FOG
JEFFERSON CITY CLOUDY    72  69  90 E8        29.85S
ROLLA          PTSUNNY   70  68  93 VRB3      29.86R
SEDALIA        CLOUDY    72  69  90 E6        29.88S
WHITEMAN AFB   CLOUDY    71  69  92 VRB5      29.86S
WARRENSBURG    CLOUDY    70  68  94 E3        29.87S
OSAGE BEACH    CLOUDY    70  66  88 NE6       29.86S VSB 1/2

$$
MOZ051-052-059>065-021400-
...EAST CENTRAL MISSOURI...

CITY           SKY/WX    TMP DP  RH WIND       PRES   REMARKS
ST LOUIS INTL  LGT RAIN  66  62  87 NE6       29.89R FOG
SPIRIT OF STL  CLOUDY    66  65  96 NE9       29.87R FOG
ST CHARLES     CLOUDY    63  59  87 NE16G22   29.89R

$$
MOZ072>076-082>087-097>100-106>115-021400-
...SOUTH CENTRAL AND SOUTHEAST MISSOURI...

CITY           SKY/WX    TMP DP  RH WIND       PRES   REMARKS
CAPE GIRARDEAU MOSUNNY   73  69  87 CALM      29.85S
FARMINGTON     CLOUDY    70  68  94 SW5       29.90S
WEST PLAINS    LGT RAIN  69  66  90 SW15G21   29.89F

$$


USA.gov is the U.S. government's official web portal to all federal, state and local government web resources and services.